KUIPER-00020

导读

KUIPER-00020是美国亚马逊公司“柯伊伯计划”(Project Kuiper)星座中的一颗卫星,该计划旨在近地轨道部署3236颗卫星,为全球提供高速卫星互联网接入服务。KUIPER-00020于2025年4月28日发射升空,属于项目批量部署的量产卫星,将参与构建全球低轨宽带通信网络,推动太空互联网基础设施建设,为偏远地区等提供高速网络连接选项,丰富全球卫星互联网服务布局。

Basic Information
目录编号:
63735
目录名称:
KUIPER-00020
国际标识:
2025-088M
轨道中心:
EARTH
卫星名称:
KUIPER-00020
卫星全名:
KUIPER-00020
卫星状态:
在轨 (已飞行411 天)
发射日期:
2025-04-28 UTC
国别 :
美国 (US)
星等 :
--
Orbit Information
数据来源 国际轨道数据
星历时间: 2026-06-13T04:51:56+0800
4小时前
查看轨道信息
半长轴: 7007.669km
偏心率: 0.0001113
轨道倾角: 51.904°
近地点辐角 81.965°
升交点赤经 42.216°
平近点角 278.144°
近地点: 628.752km
远地点: 630.312km
周期: 97.302分钟
每日圈数: 14.799344
Detailed Information
使用方式:
暂无
2D Orbit Map
3D Orbit Map
Orbit Altitude Analysis Chart
Orbit Inclination Analysis Chart
Orbit Comprehensive Analysis Chart
View Comprehensive Chart